Lid_Strength_Index
1 1 1 1 0 0 1 0 0 0 -0 -0 -0 0 0 0 -0 0 0 -0 0 0 0 0 1 0 1 1 1 1 1 2 3 2 1 -0 1 1 -1 -2 -1 -1 -1
0 0 1 1 0 0 0 0 -0 0 -0 0 -0 -0 0 0 -0 0 1 0 0 1 0 0 1 1 1 1 1 1 1 1 2 3 1 1 1 -0 -1 -0 -0 -1 -1
1 1 1 0 0 1 0 0 0 0 0 0 0 0 0 0 0 0 0 0 0 0 0 1 1 1 1 1 1 1 1 2 1 2 2 1 0 -0 0 -0 -0 -1 -1
1 1 1 1 1 1 0 0 0 0 0 0 0 0 0 0 0 0 0 0 0 1 0 0 0 1 1 1 1 1 2 2 2 2 2 2 1 1 1 1 1 0 1
1 1 1 1 0 0 1 1 1 0 0 0 0 0 0 1 1 0 0 1 0 1 0 0 0 0 1 1 1 2 2 2 2 3 3 3 3 2 2 2 2 2 1
1 1 0 0 1 1 1 1 1 1 1 0 1 1 1 1 3 2 1 1 0 1 1 1 0 0 0 2 2 2 1 2 3 3 3 3 3 4 3 4 4 4 6
1 1 1 1 1 1 1 1 1 1 1 1 1 1 1 1 4 3 2 0 1 1 1 1 1 0 0 0 3 3 3 2 1 1 2 3 3 3 4 4 3 4 4
1 1 1 1 1 1 1 1 1 1 1 2 1 1 1 1 4 3 2 0 1 1 0 0 0 1 1 0 0 1 0 0 1 0 0 0 0 0 0 1 2 2 2
1 1 1 1 1 1 1 2 1 1 2 2 1 1 1 1 4 4 2 0 1 1 1 0 0 0 5 5 1 1 1 3 4 4 3 3 2 2 1 0 2 2 3
1 1 1 0 1 1 1 1 1 1 2 1 1 1 2 1 5 5 2 1 1 1 1 2 5 4 6 5 0 1 1 1 1 1 2 2 1 2 1 -1 -0 2 2
1 1 1 1 1 1 1 1 1 2 2 2 2 1 0 1 2 6 5 1 1 1 3 3 5 6 6 5 4 0 1 -0 0 0 0 0 -0 -0 -0 -1 -1 0 1
1 2 1 1 1 1 1 1 1 2 2 2 2 2 1 2 4 7 6 5 2 1 1 3 5 7 6 4 2 4 2 2 0 0 1 1 0 0 0 -0 -1 -1 -1
1 1 1 1 1 1 1 1 2 2 3 3 3 3 3 3 5 7 7 6 5 2 2 5 6 7 6 4 4 3 4 0 1 1 1 1 1 1 -0 -1 -1 -2 -2
2 2 1 3 3 3 2 3 2 3 3 4 4 5 5 6 5 4 4 4 5 5 5 4 4 4 4 3 3 2 1 2 2 2 2 1 0 0 0 0 1 1 1
3 3 2 2 3 5 7 5 5 6 4 4 4 5 6 6 7 9 6 3 4 4 3 4 4 3 2 1 2 2 2 2 2 1 1 1 1 1 1 0 1 1 2
2 2 3 2 2 3 4 6 8 9 10 11 9 5 7 10 10 11 10 11 9 8 3 4 3 2 1 2 3 3 2 3 2 1 1 1 1 1 1 1 1 1 2
1 2 2 2 3 4 4 4 6 7 10 11 11 10 9 9 11 11 12 11 10 8 4 2 1 1 1 2 3 2 3 2 0 1 1 1 1 1 2 1 1 1 1
1 3 1 1 3 3 5 5 5 6 7 7 10 11 13 12 13 13 12 11 5 5 4 3 3 2 2 2 2 2 1 1 1 1 1 1 1 1 2 2 1 2 2
1 1 1 1 1 3 4 5 5 5 6 6 5 7 9 12 13 13 12 5 4 4 3 3 1 1 2 1 0 0 0 2 2 1 1 1 1 1 1 1 2 5 4
1 1 1 1 1 1 2 3 3 5 5 4 4 4 4 6 5 5 5 3 3 3 1 1 0 -0 0 0 -0 -0 0 1 1 1 1 1 1 1 1 1 1 2 2
1 1 0 1 1 2 2 3 3 3 3 3 3 3 6 5 4 3 2 2 1 1 0 0 0 0 -1 -0 -0 -0 0 1 1 1 1 1 1 2 1 1 1 1 2
1 0 1 1 1 1 1 1 1 2 2 2 2 2 7 2 1 2 1 1 1 0 0 -0 0 0 0 0 1 0 -0 0 0 0 1 1 1 1 1 1 1 2 2
0 0 0 1 0 1 1 1 1 1 2 2 2 2 1 1 1 0 0 0 0 -0 -1 -1 -0 -0 -1 -1 -1 -1 0 0 -0 -0 1 1 1 1 1 1 2 2 2
0 0 0 0 0 1 1 1 1 2 1 1 1 1 1 0 1 0 -0 -0 -0 -1 -1 -1 -1 -0 -1 -1 -1 -1 -1 -1 -1 -1 -0 0 1 1 0 1 2 2 3
0 0 -0 0 1 0 1 0 1 1 1 1 1 1 1 0 0 0 -0 -0 -0 -0 -0 -1 -1 -1 -0 -1 -0 -1 7 11 2 7 -0 -0 0 0 0 1 2 1 1
0 -1 -0 0 1 0 0 1 0 1 1 1 1 1 0 1 1 1 0 1 0 1 0 0 -0 -1 -1 -1 2 8 12 12 5 11 2 1 1 1 1 1 1 1 1